Find Starlink 32471

NORAD ID: 61968 Int'l Des: 2024-210 Owner: SPXS Country: US Constellation: starlink operational
LEOCIRCULAR

現在のビュー

3D地球を読み込み中...

About Starlink 32471

Starlink 32471 (NORAD 61968) is a starlink constellation satellite (v2 mini) launched Nov 14, 2024 by SPXS of US. It operates in LEO, CIRCULAR orbit with a mass of 730.00 kg.

次回通過

Passes for default location (London). Set your location on the main map for personalized predictions.

高度履歴

Loading altitude history...

軌道要素

1 61968U 24210K 26264.00382221 .00018493 00000-0 67937-3 0 9997
2 61968 43.0035 149.6246 0001567 267.6396 92.4277 15.27603306104871
Epoch: Sep 21, 2026 • Age: 16 hours

現在のステータス

高度 487.0 km
遠地点 / 近地点 N/A
速度 7.63 km/s
衛星直下点 42.68°N, 2.66°E
打ち上げ日 Nov 14, 2024
運用期間 1.8 years
タイプ internet

技術仕様

分類 Payload
質量 730.00 kg
乾燥質量 700.00 kg
長さ 0.30 m
スパン 29.00 m
形状 ? Box + pan
製造者 SPXS
バスタイプ Starlink V2M
フェーズステータス In Orbit
所有者/国 SPXS/US

Most Searched